| time (UTC) | temp C | wind direction | speed KPH | gust KPH | rain 1hr cm | rain 24hr cm | rain mn cm | humidity % | barometer mb |
| 20260508004128 | 7 | 0 | 1.6 | 0.0 | 0.00 | 0.00 | 0.00 | 80 | 980.0 |
| 20260508001128 | 7 | 0 | 4.8 | 0.0 | 0.00 | 0.00 | 0.00 | 79 | 980.0 |
| 20260507234128 | 8 | 0 | 4.8 | 0.0 | 0.00 | 0.00 | 0.00 | 78 | 981.0 |
| 20260507231128 | 8 | 0 | 3.2 | 0.0 | 0.00 | 0.00 | 0.00 | 77 | 981.0 |
| 20260507224128 | 9 | 0 | 3.2 | 0.0 | 0.00 | 0.00 | 0.00 | 75 | 981.0 |
| 20260507221128 | 10 | 0 | 1.6 | 0.0 | 0.00 | 0.00 | 0.00 | 73 | 981.0 |
| 20260507214128 | 10 | 0 | 0.0 | 0.0 | 0.00 | 0.00 | 0.00 | 74 | 981.0 |
| 20260507211128 | 10 | 0 | 0.0 | 0.0 | 0.00 | 0.00 | 0.00 | 72 | 980.0 |
| 20260507204128 | 11 | 0 | 1.6 | 0.0 | 0.00 | 0.00 | 0.00 | 71 | 980.0 |
| 20260507201128 | 12 | 0 | 1.6 | 0.0 | 0.00 | 0.00 | 0.00 | 67 | 980.0 |
| 20260507194128 | 12 | 0 | 0.0 | 0.0 | 0.00 | 0.00 | 0.00 | 65 | 980.0 |
| 20260507191128 | 13 | 0 | 0.0 | 0.0 | 0.00 | 0.00 | 0.00 | 61 | 979.0 |
| 20260507184128 | 15 | 0 | 0.0 | 0.0 | 0.00 | 0.00 | 0.00 | 53 | 979.0 |
| 20260507181128 | 16 | 0 | 3.2 | 0.0 | 0.00 | 0.00 | 0.00 | 48 | 978.0 |
| 20260507174128 | 16 | 0 | 1.6 | 0.0 | 0.00 | 0.00 | 0.00 | 44 | 978.0 |
| 20260507171128 | 16 | 0 | 4.8 | 0.0 | 0.00 | 0.00 | 0.00 | 45 | 977.0 |
| 20260507164128 | 16 | 0 | 3.2 | 0.0 | 0.00 | 0.00 | 0.00 | 45 | 977.0 |
| 20260507161128 | 17 | 0 | 3.2 | 0.0 | 0.00 | 0.00 | 0.00 | 45 | 977.0 |
| 20260507154128 | 17 | 0 | 0.0 | 0.0 | 0.00 | 0.00 | 0.00 | 43 | 977.0 |
| 20260507151128 | 17 | 0 | 4.8 | 0.0 | 0.00 | 0.00 | 0.00 | 41 | 978.0 |
| 20260507144128 | 19 | 0 | 8.0 | 0.0 | 0.00 | 0.00 | 0.00 | 38 | 977.0 |
| 20260507141128 | 19 | 0 | 3.2 | 0.0 | 0.00 | 0.00 | 0.00 | 38 | 977.0 |
| 20260507134128 | 19 | 0 | 6.4 | 0.0 | 0.00 | 0.00 | 0.00 | 37 | 976.0 |
| 20260507131128 | 20 | 0 | 17.7 | 0.0 | 0.00 | 0.00 | 0.00 | 37 | 977.0 |
| 20260507124128 | 20 | 0 | 1.6 | 0.0 | 0.00 | 0.00 | 0.00 | 37 | 977.0 |
| 20260507121128 | 20 | 0 | 14.5 | 0.0 | 0.00 | 0.00 | 0.00 | 36 | 977.0 |
| 20260507114128 | 21 | 0 | 16.1 | 0.0 | 0.00 | 0.00 | 0.00 | 35 | 977.0 |
| 20260507111128 | 20 | 0 | 6.4 | 0.0 | 0.00 | 0.00 | 0.00 | 38 | 977.0 |
| 20260507104128 | 20 | 0 | 22.5 | 0.0 | 0.00 | 0.00 | 0.00 | 40 | 977.0 |
| 20260507101128 | 17 | 0 | 4.8 | 0.0 | 0.00 | 0.00 | 0.00 | 42 | 979.0 |
| 20260507094128 | 17 | 0 | 8.0 | 0.0 | 0.00 | 0.00 | 0.00 | 42 | 978.0 |
| 20260507091128 | 18 | 0 | 8.0 | 0.0 | 0.00 | 0.00 | 0.00 | 42 | 978.0 |
| 20260507084128 | 17 | 0 | 4.8 | 0.0 | 0.00 | 0.00 | 0.00 | 46 | 978.0 |
| 20260507081128 | 16 | 0 | 6.4 | 0.0 | 0.00 | 0.00 | 0.00 | 50 | 977.0 |
| 20260507074128 | 15 | 0 | 8.0 | 0.0 | 0.00 | 0.00 | 0.00 | 57 | 977.0 |
| 20260507071128 | 13 | 0 | 1.6 | 0.0 | 0.00 | 0.00 | 0.00 | 64 | 977.0 |
| 20260507064128 | 12 | 0 | 1.6 | 0.0 | 0.00 | 0.00 | 0.00 | 67 | 977.0 |
| 20260507061128 | 12 | 0 | 3.2 | 0.0 | 0.00 | 0.00 | 0.00 | 66 | 976.0 |
| 20260507054128 | 12 | 0 | 3.2 | 0.0 | 0.00 | 0.00 | 0.00 | 65 | 977.0 |
| 20260507051128 | 12 | 0 | 1.6 | 0.0 | 0.00 | 0.00 | 0.00 | 66 | 976.0 |
| 20260507044128 | 11 | 0 | 4.8 | 0.0 | 0.00 | 0.00 | 0.00 | 70 | 976.0 |
| 20260507041128 | 10 | 0 | 1.6 | 0.0 | 0.00 | 0.00 | 0.00 | 74 | 976.0 |
| 20260507034128 | 10 | 0 | 0.0 | 0.0 | 0.00 | 0.00 | 0.00 | 75 | 976.0 |
| 20260507031128 | 10 | 0 | 1.6 | 0.0 | 0.00 | 0.00 | 0.00 | 74 | 975.0 |
| 20260507024128 | 11 | 0 | 1.6 | 0.0 | 0.00 | 0.00 | 0.00 | 73 | 975.0 |
| 20260507021128 | 11 | 0 | 0.0 | 0.0 | 0.00 | 0.00 | 0.00 | 70 | 976.0 |
| 20260507014128 | 12 | 0 | 0.0 | 0.0 | 0.00 | 0.00 | 0.00 | 67 | 975.0 |
| 20260507011128 | 12 | 0 | 6.4 | 0.0 | 0.00 | 0.00 | 0.00 | 70 | 975.0 |